Flight Track Log - Related Links

Times and Time Zones

All times are in EDT time to prevent confusion due to time zone crossing. See the SWA1046 flight status page for this flight to view local times or setup timezone preferences in your user account.

Time Position Orientation Groundspeed Altitude Reporting Facility
EDT Latitude Longitude Course Direction KTS MPH feet Rate Location/Type
02:21PM 38.7833 -90.4333 311° West 206 237 4,100  Level Gateway (St. Louis) TRACON
02:22PM 38.7778 -90.5139 265° West 246 283 7,700 2,978 Climbing Kansas City Center
02:23PM 38.7142 -90.5731 216° Southwest 281 323 10,800 3,145 Climbing Kansas City Center
02:24PM 38.6278 -90.6722 222° Southwest 335 386 14,200 3,097 Climbing Kansas City Center
02:25PM 38.5492 -90.7578 220° Southwest 356 410 17,200 2,855 Climbing Kansas City Center
02:26PM 38.4653 -90.8497 221° Southwest 377 434 20,100 2,710 Climbing Kansas City Center
02:27PM 38.3775 -90.9433 220° Southwest 408 470 22,800 2,516 Climbing Kansas City Center
02:28PM 38.2875 -91.0392 220° Southwest 422 486 25,300 2,419 Climbing Kansas City Center
02:29PM 38.1789 -91.1569 220° Southwest 427 491 27,800 2,032 Climbing Kansas City Center
02:31PM 38.0786 -91.2639 220° Southwest 442 509 29,500 1,403 Climbing Kansas City Center
02:32PM 37.9794 -91.3722 221° Southwest 461 531 30,700 1,306 Climbing Kansas City Center
02:33PM 37.8753 -91.4831 220° Southwest 478 550 32,200 1,597 Climbing Kansas City Center
02:34PM 37.7728 -91.5933 220° Southwest 480 552 34,000 1,306 Climbing Kansas City Center
02:35PM 37.6756 -91.6961 220° Southwest 461 531 34,900 1,113 Climbing Kansas City Center
02:36PM 37.5811 -91.7967 220° Southwest 445 512 36,300 1,258 Climbing Kansas City Center
02:37PM 37.4889 -91.9025 222° Southwest 443 510 37,500 823 Climbing Kansas City Center
02:38PM 37.3978 -92.0094 223° Southwest 445 512 38,000 240 Climbing Kansas City Center
02:39PM 37.2881 -92.1311 221° Southwest 437 503 38,000  Level Kansas City Center
02:40PM 37.1969 -92.2328 222° Southwest 435 501 38,000  Level Kansas City Center
02:41PM 37.1053 -92.3353 222° Southwest 437 503 38,000  Level Kansas City Center
02:42PM 37.0147 -92.4364 222° Southwest 436 502 38,000  Level Kansas City Center
02:43PM 36.9222 -92.5389 222° Southwest 438 504 38,000  Level Kansas City Center
02:43PM 36.8639 -92.6053 222° Southwest 440 506 38,000  Level Memphis Center
02:44PM 36.7725 -92.7036 221° Southwest 429 494 38,000  Level Memphis Center
02:45PM 36.6808 -92.8069 222° Southwest 434 499 38,000  Level Memphis Center
02:46PM 36.5872 -92.9050 220° Southwest 440 506 38,000  Level Memphis Center
02:47PM 36.4953 -93.0081 222° Southwest 445 512 38,000  Level Memphis Center
02:48PM 36.4100 -93.0981 220° Southwest 445 512 38,000  Level Memphis Center
02:49PM 36.3181 -93.1981 221° Southwest 445 512 38,000  Level Memphis Center
02:50PM 36.2261 -93.2978 221° Southwest 445 512 38,000  Level Memphis Center
02:51PM 36.1319 -93.3972 220° Southwest 445 512 38,000  Level Memphis Center
02:52PM 36.0400 -93.4939 220° Southwest 445 512 38,000  Level Memphis Center
02:53PM 35.9478 -93.5928 221° Southwest 451 519 38,000  Level Memphis Center
02:54PM 35.8556 -93.6917 221° Southwest 445 512 38,000  Level Memphis Center
02:55PM 35.7653 -93.7878 221° Southwest 445 512 38,000  Level Memphis Center
02:56PM 35.6731 -93.8861 221° Southwest 445 512 38,000  Level Memphis Center
02:57PM 35.5825 -93.9819 221° Southwest 440 506 38,000  Level Memphis Center
02:58PM 35.4922 -94.0750 220° Southwest 440 506 38,000  Level Memphis Center
02:59PM 35.4039 -94.1703 221° Southwest 435 501 38,000  Level Memphis Center
03:00PM 35.2986 -94.2722 218° Southwest 430 495 38,000  Level Memphis Center
03:03PM 35.1011 -94.4875 222° Southwest 427 491 38,000  Level Fort Worth Center
03:04PM 35.0094 -94.5819 220° Southwest 432 497 38,000  Level Fort Worth Center
03:05PM 34.9175 -94.6789 221° Southwest 432 497 38,000  Level Fort Worth Center
03:06PM 34.8217 -94.7756 220° Southwest 432 497 38,000  Level Fort Worth Center
03:07PM 34.7278 -94.8744 221° Southwest 432 497 38,000  Level Fort Worth Center
03:08PM 34.6378 -94.9628 219° Southwest 432 497 38,000  Level Fort Worth Center
03:09PM 34.5478 -95.0561 221° Southwest 422 486 38,000 -750 Level Fort Worth Center
03:10PM 34.4597 -95.1467 220° Southwest 427 491 36,500 -1,950 Descending Fort Worth Center
03:11PM 34.3675 -95.2397 220° Southwest 427 491 34,100 -2,100 Descending Fort Worth Center
03:12PM 34.2792 -95.3275 219° Southwest 427 491 32,300 -1,900 Descending Fort Worth Center
03:13PM 34.1931 -95.4147 220° Southwest 421 484 30,300 -1,950 Descending Fort Worth Center
03:14PM 34.1067 -95.5022 220° Southwest 421 484 28,400 -1,750 Descending Fort Worth Center
03:15PM 34.0389 -95.5689 219° Southwest 415 478 26,800 -1,850 Descending Fort Worth Center
03:16PM 33.9525 -95.6608 221° Southwest 391 450 24,700 -2,000 Descending Fort Worth Center
03:17PM 33.8639 -95.7450 218° Southwest 397 457 22,800 -1,950 Descending Fort Worth Center
03:18PM 33.7814 -95.8267 219° Southwest 397 457 20,800 -2,050 Descending Fort Worth Center
03:19PM 33.6886 -95.9156 219° Southwest 397 457 18,700 -1,900 Descending Fort Worth Center
03:20PM 33.6164 -95.9867 219° Southwest 390 449 17,000 -1,850 Descending Fort Worth Center
03:21PM 33.5339 -96.0678 219° Southwest 370 426 15,000 -1,800 Descending Fort Worth Center
03:22PM 33.4656 -96.1361 220° Southwest 358 412 13,400 -1,700 Descending Fort Worth Center
03:23PM 33.3892 -96.2117 220° Southwest 345 397 11,600 -1,650 Descending Fort Worth Center
03:24PM 33.3250 -96.2747 219° Southwest 338 389 10,100 -1,350 Descending Fort Worth Center
03:25PM 33.2567 -96.3453 221° Southwest 319 367 8,900 -1,050 Descending Fort Worth Center
03:26PM 33.2136 -96.4128 233° Southwest 296 341 8,000 -1,000 Descending Fort Worth Center
03:27PM 33.1619 -96.4953 233° Southwest 286 329 6,900 -1,000 Descending Fort Worth Center
03:28PM 33.1228 -96.5603 234° Southwest 281 323 6,000 -900 Descending Fort Worth Center
03:29PM 33.0772 -96.6325 233° Southwest 276 318 5,100 -950 Descending Fort Worth Center
03:30PM 33.0339 -96.7047 234° Southwest 262 302 4,100 -800 Descending Fort Worth Center
03:31PM 33.0008 -96.7619 235° Southwest 246 283 3,500 -550 Descending Fort Worth Center
03:32PM 32.9594 -96.8292 234° Southwest 246 283 3,000 -295 Descending Fort Worth Center
03:33PM 32.9333 -96.8833 240° Southwest 163 188 2,900 -689 Descending Dallas / Fort Worth TRACON
03:34PM 32.9000 -96.9000 203° Southwest 148 170 1,600 -1,000 Descending Dallas / Fort Worth TRACON
03:35PM 32.8667 -96.8833 157° South 137 158 900 -700 Descending Dallas / Fort Worth TRACON
03:38PM 32.8471 -96.8518 90° East  Level Estimated

Login

Don't have an account? Register now (free) for customized features, flight alerts, and more!